GW0353 Weather Reports


time (UTC)temp
C
wind
direction
speed
KPH
gust
KPH
rain 1hr
cm
rain 24hr
cm
rain mn
cm
humidity
%
barometer
mb
20260901110108 8 0 0.0 3.2 0.00 0.00 0.00 74 1020.4
20260901105559 8 171 0.0 1.6 0.00 0.00 0.00 74 1020.5
20260901105058 8 0 0.0 3.2 0.00 0.00 0.00 76 1020.4
20260901104603 8 0 0.0 3.2 0.00 0.00 0.00 76 1020.2
20260901104059 8 224 0.0 1.6 0.00 0.00 0.00 75 1020.2
20260901103559 8 0 0.0 1.6 0.00 0.00 0.00 74 1020.2
20260901103112 8 0 0.0 0.0 0.00 0.00 0.00 74 1020.2
20260901102600 8 0 0.0 1.6 0.00 0.00 0.00 74 1020.2
20260901102059 8 0 0.0 1.6 0.00 0.00 0.00 75 1020.2
20260901101605 8 173 0.0 1.6 0.00 0.00 0.00 74 1020.2
20260901101059 9 225 0.0 3.2 0.00 0.00 0.00 74 1020.4
20260901100559 8 0 0.0 3.2 0.00 0.00 0.00 75 1020.3
20260901100106 8 0 0.0 0.0 0.00 0.00 0.00 73 1020.3
20260901095558 9 0 0.0 0.0 0.00 0.00 0.00 72 1020.5
20260901095058 9 0 0.0 1.6 0.00 0.00 0.00 76 1020.4
20260901094603 9 0 0.0 1.6 0.00 0.00 0.00 73 1020.3
20260901094059 9 0 0.0 1.6 0.00 0.00 0.00 73 1020.4
20260901093558 9 0 0.0 1.6 0.00 0.00 0.00 71 1020.2
20260901093111 9 0 0.0 1.6 0.00 0.00 0.00 73 1020.2
20260901092559 9 0 0.0 1.6 0.00 0.00 0.00 71 1020.3
20260901092059 9 0 0.0 1.6 0.00 0.00 0.00 72 1020.2
20260901091611 9 0 0.0 3.2 0.00 0.00 0.00 72 1020.4
20260901091058 9 0 0.0 3.2 0.00 0.00 0.00 71 1020.3
20260901090559 10 0 0.0 1.6 0.00 0.00 0.00 72 1020.4
20260901085602 10 0 0.0 0.0 0.00 0.00 0.00 70 1020.6
20260901085059 10 0 0.0 0.0 0.00 0.00 0.00 69 1020.6
20260901084604 10 0 0.0 0.0 0.00 0.00 0.00 69 1020.4
20260901084100 10 0 0.0 0.0 0.00 0.00 0.00 69 1020.5
20260901083559 10 0 0.0 1.6 0.00 0.00 0.00 69 1020.6
20260901083107 10 0 0.0 1.6 0.00 0.00 0.00 68 1020.6
20260901082559 10 0 0.0 3.2 0.00 0.00 0.00 69 1020.7
20260901082059 10 0 0.0 3.2 0.00 0.00 0.00 69 1020.8
20260901081603 10 0 0.0 1.6 0.00 0.00 0.00 69 1021.0
20260901081058 10 0 0.0 0.0 0.00 0.00 0.00 70 1021.0
20260901080559 10 0 0.0 0.0 0.00 0.00 0.00 70 1020.9
20260901080109 10 0 0.0 0.0 0.00 0.00 0.00 70 1020.9
20260901075559 11 0 0.0 0.0 0.00 0.00 0.00 68 1020.9
20260901075059 10 0 0.0 1.6 0.00 0.00 0.00 67 1020.9
20260901074605 10 0 0.0 1.6 0.00 0.00 0.00 65 1021.0
20260901074059 10 0 0.0 1.6 0.00 0.00 0.00 65 1020.9
20260901073559 10 0 0.0 0.0 0.00 0.00 0.00 64 1021.1
20260901073105 11 0 0.0 1.6 0.00 0.00 0.00 64 1020.9
20260901072559 11 0 0.0 1.6 0.00 0.00 0.00 63 1020.9
20260901072102 11 0 0.0 1.6 0.00 0.00 0.00 63 1021.0
20260901071605 11 0 0.0 1.6 0.00 0.00 0.00 63 1020.9
20260901071058 11 0 0.0 3.2 0.00 0.00 0.00 64 1021.1
20260901070558 11 0 0.0 3.2 0.00 0.00 0.00 63 1021.1
20260901070106 11 126 0.0 3.2 0.00 0.00 0.00 63 1021.1
20260901065604 11 0 0.0 3.2 0.00 0.00 0.00 62 1021.1
20260901065100 11 0 0.0 1.6 0.00 0.00 0.00 61 1021.3
20260901064605 11 0 0.0 1.6 0.00 0.00 0.00 61 1021.3
20260901064058 11 0 0.0 0.0 0.00 0.00 0.00 61 1021.3
20260901063559 11 0 0.0 0.0 0.00 0.00 0.00 61 1021.3
20260901063116 11 0 0.0 1.6 0.00 0.00 0.00 60 1021.3
20260901062559 12 0 0.0 1.6 0.00 0.00 0.00 59 1021.2
20260901062059 12 0 0.0 1.6 0.00 0.00 0.00 60 1021.3
20260901061621 12 0 0.0 1.6 0.00 0.00 0.00 58 1021.3
20260901061059 12 0 0.0 8.0 0.00 0.00 0.00 58 1021.4
20260901060559 12 0 0.0 8.0 0.00 0.00 0.00 56 1021.4
20260901060106 12 54 3.2 8.0 0.00 0.00 0.00 56 1021.4
20260901055558 13 68 3.2 6.4 0.00 0.00 0.00 56 1021.5
20260901055058 13 65 3.2 6.4 0.00 0.00 0.00 56 1021.5
20260901054605 13 65 4.8 6.4 0.00 0.00 0.00 56 1021.5
20260901054059 12 66 0.0 4.8 0.00 0.00 0.00 57 1021.5
20260901053559 12 106 0.0 0.0 0.00 0.00 0.00 60 1021.5
20260901053107 12 0 0.0 1.6 0.00 0.00 0.00 60 1021.5
20260901052558 12 0 0.0 3.2 0.00 0.00 0.00 60 1021.6
20260901052058 12 0 0.0 3.2 0.00 0.00 0.00 59 1021.5
20260901051618 13 221 0.0 1.6 0.00 0.00 0.00 58 1021.6
20260901051059 13 0 0.0 3.2 0.00 0.00 0.00 58 1021.6
20260901050600 13 0 0.0 3.2 0.00 0.00 0.00 56 1021.6
20260901050109 13 170 0.0 3.2 0.00 0.00 0.00 56 1021.6
20260901045558 13 0 0.0 6.4 0.00 0.00 0.00 57 1021.5
20260901045058 13 0 0.0 6.4 0.00 0.00 0.00 55 1021.5
20260901044605 14 176 1.6 4.8 0.00 0.00 0.00 54 1021.5
20260901044101 14 186 0.0 6.4 0.00 0.00 0.00 54 1021.5
20260901043559 15 0 1.6 6.4 0.00 0.00 0.00 54 1021.3
20260901043108 15 48 1.6 6.4 0.00 0.00 0.00 53 1021.5
20260901042558 15 0 0.0 4.8 0.00 0.00 0.00 53 1021.4
20260901042058 15 0 0.0 4.8 0.00 0.00 0.00 53 1021.3
20260901041603 15 73 0.0 4.8 0.00 0.00 0.00 53 1021.4
20260901041102 15 106 0.0 11.3 0.00 0.00 0.00 52 1021.4
20260901040558 15 0 3.2 11.3 0.00 0.00 0.00 52 1021.4
20260901040106 15 62 3.2 11.3 0.00 0.00 0.00 53 1021.5
20260901035559 15 0 0.0 11.3 0.00 0.00 0.00 52 1021.4
20260901035059 15 152 4.8 11.3 0.00 0.00 0.00 52 1021.4
20260901034610 15 184 4.8 11.3 0.00 0.00 0.00 51 1021.2
20260901034058 16 183 1.6 8.0 0.00 0.00 0.00 51 1021.1
20260901033601 16 146 4.8 8.0 0.00 0.00 0.00 50 1021.1
20260901033115 16 116 0.0 6.4 0.00 0.00 0.00 50 1021.1
20260901032559 16 145 3.2 8.0 0.00 0.00 0.00 50 1021.0
20260901032059 16 66 3.2 8.0 0.00 0.00 0.00 50 1020.9
20260901031606 16 131 3.2 8.0 0.00 0.00 0.00 50 1020.9
20260901031058 16 149 0.0 9.7 0.00 0.00 0.00 51 1020.8
20260901030558 16 129 4.8 9.7 0.00 0.00 0.00 51 1020.7
20260901030105 17 74 0.0 6.4 0.00 0.00 0.00 52 1020.7
20260901025558 17 0 1.6 4.8 0.00 0.00 0.00 51 1020.7
20260901025059 17 0 1.6 8.0 0.00 0.00 0.00 51 1020.6
20260901024615 17 193 0.0 16.1 0.00 0.00 0.00 52 1020.4
20260901024100 17 62 6.4 16.1 0.00 0.00 0.00 51 1020.4
20260901023558 17 54 4.8 16.1 0.00 0.00 0.00 50 1020.4
20260901023106 17 53 0.0 6.4 0.00 0.00 0.00 50 1020.3
20260901022558 17 0 0.0 11.3 0.00 0.00 0.00 49 1020.2
20260901022100 18 159 3.2 14.5 0.00 0.00 0.00 47 1020.1
20260901021606 18 21 3.2 16.1 0.00 0.00 0.00 48 1020.1
20260901021058 18 56 6.4 19.3 0.00 0.00 0.00 48 1020.1
20260901020601 18 37 3.2 19.3 0.00 0.00 0.00 46 1020.1
20260901015559 19 11 4.8 12.9 0.00 0.00 0.00 46 1019.9
20260901015057 20 72 3.2 11.3 0.00 0.00 0.00 46 1019.8
20260901014610 20 51 1.6 16.1 0.00 0.00 0.00 47 1019.7
20260901014059 20 326 4.8 19.3 0.00 0.00 0.00 45 1019.6
20260901013559 20 53 6.4 25.7 0.00 0.00 0.00 43 1019.5
20260901013101 21 356 8.0 25.7 0.00 0.00 0.00 41 1019.5
20260901012558 22 323 3.2 20.9 0.00 0.00 0.00 37 1019.4
20260901012058 22 15 3.2 20.9 0.00 0.00 0.00 36 1019.4
20260901011610 23 25 6.4 16.1 0.00 0.00 0.00 28 1019.5
20260901011058 23 77 3.2 19.3 0.00 0.00 0.00 28 1019.5
20260901010558 23 100 8.0 19.3 0.00 0.00 0.00 28 1019.3
20260901010115 23 20 6.4 17.7 0.00 0.00 0.00 28 1019.4
20260901005559 23 94 6.4 16.1 0.00 0.00 0.00 28 1019.3
20260901005058 23 83 6.4 19.3 0.00 0.00 0.00 29 1019.4
20260901004618 23 60 8.0 19.3 0.00 0.00 0.00 28 1019.3
20260901004058 23 103 1.6 19.3 0.00 0.00 0.00 28 1019.4
20260901003602 23 120 6.4 19.3 0.00 0.00 0.00 28 1019.5
20260901003102 23 85 9.7 17.7 0.00 0.00 0.00 28 1019.6
20260901002559 23 122 8.0 19.3 0.00 0.00 0.00 28 1019.5
20260901002059 23 153 9.7 19.3 0.00 0.00 0.00 28 1019.6
20260901001606 23 105 8.0 16.1 0.00 0.00 0.00 28 1019.6
20260901001059 23 117 6.4 16.1 0.00 0.00 0.00 28 1019.6
20260901000601 23 82 9.7 19.3 0.00 0.00 0.00 28 1019.7
20260901000110 23 102 8.0 19.3 0.00 0.00 0.00 29 1019.7
20260831235558 23 115 6.4 17.7 0.00 0.00 0.00 29 1019.7
20260831235055 23 170 8.0 20.9 0.00 0.00 0.00 28 1019.6
20260831234609 23 142 9.7 24.1 0.00 0.00 0.00 29 1019.9
20260831234057 23 84 12.9 24.1 0.00 0.00 0.00 29 1019.7
20260831233556 23 136 12.9 20.9 0.00 0.00 0.00 28 1019.7
20260831233105 23 37 3.2 17.7 0.00 0.00 0.00 29 1019.6
20260831232558 23 0 9.7 17.7 0.00 0.00 0.00 28 1019.5
20260831232056 23 24 8.0 17.7 0.00 0.00 0.00 28 1019.6
20260831231609 23 130 11.3 17.7 0.00 0.00 0.00 29 1019.7
20260831231057 23 118 6.4 22.5 0.00 0.00 0.00 29 1019.8
20260831230557 23 235 6.4 22.5 0.00 0.00 0.00 30 1019.8
20260831225556 23 119 8.0 29.0 0.00 0.00 0.00 29 1019.9
20260831225056 23 96 6.4 29.0 0.00 0.00 0.00 29 1019.9
20260831224610 23 131 12.9 29.0 0.00 0.00 0.00 30 1019.9
20260831224058 23 0 3.2 16.1 0.00 0.00 0.00 29 1020.1
20260831223558 23 155 6.4 22.5 0.00 0.00 0.00 28 1020.2
20260831223107 23 73 8.0 27.4 0.00 0.00 0.00 28 1020.3
20260831222600 23 129 11.3 27.4 0.00 0.00 0.00 28 1020.3
20260831222057 24 84 4.8 19.3 0.00 0.00 0.00 29 1020.4
20260831221610 23 0 4.8 24.1 0.00 0.00 0.00 28 1020.5
20260831221101 24 118 11.3 24.1 0.00 0.00 0.00 29 1020.5
20260831220557 24 76 8.0 20.9 0.00 0.00 0.00 29 1020.4
20260831220105 23 84 4.8 24.1 0.00 0.00 0.00 29 1020.5
20260831215557 23 107 6.4 24.1 0.00 0.00 0.00 29 1020.5
20260831215058 23 46 9.7 22.5 0.00 0.00 0.00 30 1020.4
20260831214607 23 40 3.2 17.7 0.00 0.00 0.00 29 1020.6
20260831214057 25 52 1.6 11.3 0.00 0.00 0.00 29 1020.9
20260831213556 24 0 1.6 20.9 0.00 0.00 0.00 29 1020.9
20260831213101 23 160 1.6 20.9 0.00 0.00 0.00 30 1021.1
20260831212556 23 69 9.7 20.9 0.00 0.00 0.00 30 1020.9
20260831212059 23 134 4.8 20.9 0.00 0.00 0.00 31 1021.0
20260831211606 23 123 8.0 27.4 0.00 0.00 0.00 30 1021.1
20260831211057 23 148 9.7 27.4 0.00 0.00 0.00 30 1021.0
20260831210556 23 76 9.7 27.4 0.00 0.00 0.00 30 1021.2
20260831210106 23 32 11.3 20.9 0.00 0.00 0.00 30 1021.1
20260831205559 23 97 9.7 29.0 0.00 0.00 0.00 32 1021.1
20260831205057 23 129 9.7 29.0 0.00 0.00 0.00 32 1021.2
20260831204603 23 30 11.3 30.6 0.00 0.00 0.00 32 1021.3
20260831204057 23 117 11.3 30.6 0.00 0.00 0.00 32 1021.3
20260831203557 22 140 12.9 30.6 0.00 0.00 0.00 32 1021.3
20260831203107 22 164 12.9 30.6 0.00 0.00 0.00 32 1021.3
20260831202558 22 97 12.9 30.6 0.00 0.00 0.00 33 1021.2
20260831202058 22 55 11.3 37.0 0.00 0.00 0.00 32 1021.4
20260831201603 22 136 12.9 37.0 0.00 0.00 0.00 33 1021.4
20260831201058 22 175 12.9 29.0 0.00 0.00 0.00 33 1021.4
20260831200558 22 68 14.5 25.7 0.00 0.00 0.00 33 1021.4
20260831200107 22 104 9.7 32.2 0.00 0.00 0.00 34 1021.5
20260831195558 22 51 17.7 32.2 0.00 0.00 0.00 33 1021.4
20260831195057 21 113 16.1 29.0 0.00 0.00 0.00 33 1021.6
20260831194640 21 107 16.1 30.6 0.00 0.00 0.00 33 1021.7
20260831194057 22 104 12.9 30.6 0.00 0.00 0.00 33 1021.7
20260831193558 22 69 14.5 30.6 0.00 0.00 0.00 32 1021.7
20260831193104 21 100 12.9 33.8 0.00 0.00 0.00 34 1021.8
20260831192558 21 104 16.1 33.8 0.00 0.00 0.00 33 1021.9
20260831192058 21 96 14.5 27.4 0.00 0.00 0.00 33 1021.8
20260831191608 21 68 16.1 33.8 0.00 0.00 0.00 33 1022.1
20260831191058 21 153 14.5 33.8 0.00 0.00 0.00 33 1022.0
20260831190558 21 119 16.1 29.0 0.00 0.00 0.00 32 1022.2
20260831190130 21 148 16.1 29.0 0.00 0.00 0.00 32 1022.1
20260831185558 21 175 11.3 30.6 0.00 0.00 0.00 33 1022.1
20260831185058 21 139 17.7 40.2 0.00 0.00 0.00 32 1022.3
20260831184614 21 115 12.9 40.2 0.00 0.00 0.00 33 1022.2
20260831184059 21 95 14.5 32.2 0.00 0.00 0.00 32 1022.2
20260831183559 21 117 9.7 25.7 0.00 0.00 0.00 32 1022.3
20260831183111 21 106 16.1 25.7 0.00 0.00 0.00 32 1022.3
20260831182601 21 122 11.3 22.5 0.00 0.00 0.00 32 1022.3
20260831182058 21 19 11.3 22.5 0.00 0.00 0.00 32 1022.4
20260831181606 21 119 9.7 22.5 0.00 0.00 0.00 32 1022.4
20260831181058 21 153 9.7 25.7 0.00 0.00 0.00 31 1022.4
20260831180559 21 110 8.0 27.4 0.00 0.00 0.00 32 1022.4
20260831180109 21 26 12.9 27.4 0.00 0.00 0.00 31 1022.3
20260831175600 22 60 8.0 22.5 0.00 0.00 0.00 30 1022.3
20260831175058 22 276 3.2 8.0 0.00 0.00 0.00 31 1022.4
20260831174639 22 0 1.6 6.4 0.00 0.00 0.00 29 1022.3
20260831174058 22 352 1.6 6.4 0.00 0.00 0.00 30 1022.4
20260831173558 21 349 1.6 6.4 0.00 0.00 0.00 30 1022.4
20260831173105 21 311 1.6 6.4 0.00 0.00 0.00 30 1022.4
20260831172558 21 56 1.6 6.4 0.00 0.00 0.00 32 1022.6
20260831172058 20 306 3.2 8.0 0.00 0.00 0.00 34 1022.6
20260831171604 20 74 0.0 8.0 0.00 0.00 0.00 35 1022.6
20260831171058 21 51 0.0 3.2 0.00 0.00 0.00 33 1022.5
20260831170558 20 244 0.0 4.8 0.00 0.00 0.00 34 1022.6
20260831170107 19 290 0.0 4.8 0.00 0.00 0.00 39 1022.5
20260831165559 18 44 0.0 6.4 0.00 0.00 0.00 41 1022.5
20260831165058 18 53 3.2 6.4 0.00 0.00 0.00 44 1022.6
20260831164605 18 42 1.6 4.8 0.00 0.00 0.00 42 1022.6
20260831164100 18 0 1.6 6.4 0.00 0.00 0.00 41 1022.8
20260831163558 17 52 3.2 6.4 0.00 0.00 0.00 45 1022.8
20260831163107 17 53 1.6 6.4 0.00 0.00 0.00 42 1022.8
20260831162559 17 53 1.6 6.4 0.00 0.00 0.00 42 1022.9
20260831162058 17 43 3.2 8.0 0.00 0.00 0.00 47 1022.9
20260831161608 16 34 3.2 8.0 0.00 0.00 0.00 47 1022.9
20260831161058 17 45 1.6 4.8 0.00 0.00 0.00 44 1022.9
20260831160558 16 52 0.0 4.8 0.00 0.00 0.00 47 1022.8
20260831160106 16 0 1.6 4.8 0.00 0.00 0.00 45 1022.9
20260831155601 15 47 0.0 4.8 0.00 0.00 0.00 45 1022.9
20260831155058 15 38 3.2 4.8 0.00 0.00 0.00 55 1022.9
20260831154627 14 0 0.0 3.2 0.00 0.00 0.00 58 1022.8
20260831154057 14 71 0.0 1.6 0.00 0.00 0.00 60 1022.8
20260831153601 13 0 0.0 1.6 0.00 0.00 0.00 61 1022.9
20260831153118 13 0 0.0 1.6 0.00 0.00 0.00 63 1023.0
20260831152558 12 95 0.0 1.6 0.00 0.00 0.00 66 1023.0
20260831152058 11 0 0.0 1.6 0.00 0.00 0.00 66 1022.9
20260831151613 11 86 0.0 1.6 0.00 0.00 0.00 69 1022.9
20260831151059 11 0 0.0 1.6 0.00 0.00 0.00 68 1022.9
20260831150559 10 0 0.0 1.6 0.00 0.00 0.00 71 1022.9
20260831150106 10 0 0.0 1.6 0.00 0.00 0.00 71 1022.9
20260831145559 10 0 0.0 0.0 0.00 0.00 0.00 72 1022.9
20260831145058 10 0 0.0 1.6 0.00 0.00 0.00 74 1022.9
20260831144605 8 0 0.0 1.6 0.00 0.00 0.00 76 1022.9
20260831144058 8 0 0.0 0.0 0.00 0.00 0.00 74 1023.0
20260831143558 7 0 0.0 1.6 0.00 0.00 0.00 76 1022.8
20260831143103 6 0 0.0 1.6 0.00 0.00 0.00 80 1022.8
20260831142558 5 0 0.0 1.6 0.00 0.00 0.00 82 1022.8
20260831142059 5 0 0.0 0.0 0.00 0.00 0.00 81 1022.8
20260831141606 5 0 0.0 0.0 0.00 0.00 0.00 81 1022.9
20260831141057 5 0 0.0 0.0 0.00 0.00 0.00 80 1022.9
20260831140558 5 0 0.0 1.6 0.00 0.00 0.00 80 1022.8
20260831140106 5 0 0.0 1.6 0.00 0.00 0.00 80 1022.7
20260831135559 5 0 0.0 1.6 0.00 0.00 0.00 80 1022.6
20260831135058 5 187 0.0 1.6 0.00 0.00 0.00 79 1022.6
20260831134614 5 0 0.0 1.6 0.00 0.00 0.00 79 1022.6
20260831134057 5 0 0.0 1.6 0.00 0.00 0.00 78 1022.6
20260831133557 5 0 0.0 0.0 0.00 0.00 0.00 79 1022.6
20260831133107 5 0 0.0 0.0 0.00 0.00 0.00 80 1022.6
20260831132557 5 0 0.0 1.6 0.00 0.00 0.00 80 1022.5
20260831132058 5 188 0.0 1.6 0.00 0.00 0.00 79 1022.5
20260831131601 5 174 0.0 1.6 0.00 0.00 0.00 79 1022.5
20260831131058 5 0 0.0 0.0 0.00 0.00 0.00 78 1022.6
20260831130558 5 0 0.0 0.0 0.00 0.00 0.00 77 1022.4
20260831130109 6 0 0.0 0.0 0.00 0.00 0.00 77 1022.4
20260831125558 6 0 0.0 0.0 0.00 0.00 0.00 77 1022.4
20260831125058 6 0 0.0 0.0 0.00 0.00 0.00 80 1022.4
20260831124608 5 0 0.0 0.0 0.00 0.00 0.00 78 1022.4
20260831124057 6 0 0.0 0.0 0.00 0.00 0.00 76 1022.5
20260831123558 6 0 0.0 0.0 0.00 0.00 0.00 75 1022.4
20260831123105 6 0 0.0 0.0 0.00 0.00 0.00 76 1022.4
20260831122601 6 0 0.0 1.6 0.00 0.00 0.00 76 1022.4
20260831122058 6 0 0.0 3.2 0.00 0.00 0.00 77 1022.4
20260831121632 6 0 0.0 3.2 0.00 0.00 0.00 76 1022.4
20260831121058 6 0 0.0 1.6 0.00 0.00 0.00 75 1022.5
20260831120601 6 0 0.0 1.6 0.00 0.00 0.00 76 1022.5
20260831120111 6 0 0.0 3.2 0.00 0.00 0.00 77 1022.6
20260831115557 6 0 0.0 3.2 0.00 0.00 0.00 76 1022.6
20260831115101 6 0 0.0 3.2 0.00 0.00 0.00 74 1022.6
20260831114605 6 0 0.0 1.6 0.00 0.00 0.00 75 1022.8
20260831114057 6 0 0.0 1.6 0.00 0.00 0.00 75 1022.6
20260831113557 6 0 0.0 1.6 0.00 0.00 0.00 75 1022.6
20260831113109 6 174 0.0 1.6 0.00 0.00 0.00 75 1022.7
20260831112558 6 0 0.0 1.6 0.00 0.00 0.00 76 1022.6
20260831112058 6 0 0.0 1.6 0.00 0.00 0.00 75 1022.7
20260831111604 6 0 0.0 0.0 0.00 0.00 0.00 76 1022.7
20260831111058 6 0 0.0 0.0 0.00 0.00 0.00 75 1022.7
20260831110558 7 0 0.0 0.0 0.00 0.00 0.00 77 1022.7